Volver al catálogo

CZ-6A DEB

ActivoSSO
NORAD 54345·DEBRIS·🇨🇳 China

Lanzado Nov 11, 2022 desde Taiyuan Satellite Launch Center

Loading…

Próximos Pases (próximas 24 horas)

TLE

ActualizadoSource: Space-Track

Época: Sep 14, 2026, 08:24 UTC

1 54345U 22151CQ  26257.35022585  .00004656  00000-0  12407-2 0  9991
2 54345  98.6602 290.1101 0054217 156.0223 204.3512 14.48083017200449

Sigue CZ-6A DEB en tiempo real con AllMySat

Download on the App Store